Home   Weather   39°57'N, 76°43'W   Past weeks
Flag for USA

Past Weather in 39°57'N, 76°43'W, USA — Yesterday and Last 2 Weeks

Now
78 °F

Sunny.


Feels Like: 80 °F
Forecast: 79 / 63 °F
Wind: 7 mph from Southwest

Location: Capital City Airport

Current Time: May 23, 2019 at 9:06:31 pm

Latest Report: May 23, 2019 at 7:56 pm


Visibility: 10 mi

Pressure: 29.89 "Hg

Humidity: 64%

Dew Point: 65 °F

Location of 39°57'N, 76°43'WLocation

Past Weather in 39°57'N, 76°43'W — Graph

°F

39°57'N, 76°43'W Temperature Yesterday

Maximum temperature yesterday: 73 °F (at 5:56 pm)
Minimum temperature yesterday: 46 °F (at 5:56 am)
Average temperature yesterday: 62 °F

High & Low Weather Summary for the Past Weeks

 TemperatureHumidityPressure
High91 °F (May 19, 3:56 pm)93% (May 9, 11:56 am)30.29 "Hg (May 9, 11:56 am)
Low45 °F (May 13, 5:04 am)27% (May 15, 1:56 pm)29.74 "Hg (May 17, 3:56 pm)
Average63 °F68%29.96 "Hg
* Reported May 8 6:56 pm — May 23 6:56 pm, 39°57'N, 76°43'W. Weather by CustomWeather, © 2019

Note: Actual official high and low records may vary slightly from our data, if they occured in-between our weather recording intervals... More about our weather records

Advertising

39°57'N, 76°43'W Weather History for the Previous 24 Hours

Scroll right to see more
 ConditionsComfort  
Time TempWeatherWind HumidityBarometerVisibility
6:56 pm
Thu, May 23
79 °FPassing clouds.7 mph60%29.91 "Hg10 mi
5:56 pm78 °FScattered clouds.7 mph64%29.92 "Hg10 mi
4:56 pm79 °FPassing clouds.12 mph62%29.93 "Hg10 mi
3:56 pm77 °FPartly sunny.6 mph66%29.96 "Hg10 mi
2:56 pm75 °FLight rain. Partly sunny.6 mph71%30.03 "Hg10 mi
2:26 pm75 °FLight rain. Broken clouds.8 mph69%30.05 "Hg5 mi
2:11 pm77 °FThundershowers. Broken clouds.9 mph58%30.05 "Hg10 mi
1:56 pm78 °FPassing clouds.8 mph54%30.03 "Hg10 mi
12:56 pm77 °FSunny.6 mph54%30.04 "Hg10 mi
11:56 am74 °FSunny.8 mph53%30.09 "Hg10 mi
10:56 am71 °FSunny.5 mph55%30.11 "Hg10 mi
9:56 am68 °FPartly sunny.8 mph57%30.13 "Hg10 mi
8:56 am67 °FMostly cloudy.5 mph55%30.14 "Hg10 mi
7:56 am65 °FPartly sunny.5 mph56%30.15 "Hg10 mi
6:56 am63 °FMostly cloudy.3 mph60%30.16 "Hg10 mi
5:56 am63 °FMostly cloudy.5 mph60%30.15 "Hg10 mi
4:56 am63 °FPassing clouds.5 mph58%30.15 "Hg10 mi
3:56 am64 °FOvercast.7 mph56%30.15 "Hg10 mi
2:56 am65 °FOvercast.5 mph52%30.16 "Hg10 mi
1:56 am64 °FOvercast.5 mph52%30.18 "Hg10 mi
12:56 am65 °FPassing clouds.5 mph49%30.19 "Hg10 mi
11:56 pm
Wed, May 22
65 °FPassing clouds.7 mph49%30.21 "Hg10 mi
10:56 pm65 °FClear.5 mph47%30.22 "Hg10 mi
9:56 pm67 °FMostly cloudy.7 mph44%30.23 "Hg10 mi
Weather by CustomWeather, © 2019

See weather overview